| time (UTC) | temp F | wind direction | speed MPH | gust MPH | rain 1hr in | rain 24hr in | rain mn in | humidity % | barometer mb |
| 20260904062054 | 80 | 157 | 0.0 | 3.0 | 0.00 | 0.00 | 0.00 | 88 | 1013.5 |
| 20260904061557 | 80 | 157 | 0.0 | 3.0 | 0.00 | 0.00 | 0.00 | 88 | 1013.5 |
| 20260904061056 | 80 | 0 | 0.0 | 3.0 | 0.00 | 0.00 | 0.00 | 88 | 1013.4 |
| 20260904060555 | 80 | 155 | 0.0 | 5.0 | 0.00 | 0.00 | 0.00 | 88 | 1013.5 |
| 20260904060056 | 80 | 0 | 1.0 | 5.0 | 0.00 | 0.00 | 0.00 | 88 | 1013.4 |
| 20260904055551 | 80 | 151 | 0.0 | 3.0 | 0.00 | 0.00 | 0.00 | 88 | 1013.5 |
| 20260904055054 | 80 | 150 | 1.0 | 5.0 | 0.00 | 0.00 | 0.00 | 88 | 1013.6 |
| 20260904054604 | 80 | 159 | 1.0 | 5.0 | 0.00 | 0.00 | 0.00 | 88 | 1013.6 |
| 20260904054051 | 80 | 157 | 0.0 | 0.0 | 0.00 | 0.00 | 0.00 | 88 | 1013.5 |
| 20260904053551 | 80 | 0 | 0.0 | 0.0 | 0.00 | 0.00 | 0.00 | 88 | 1013.4 |
| 20260904053130 | 81 | 0 | 0.0 | 0.0 | 0.00 | 0.00 | 0.00 | 87 | 1013.6 |
| 20260904052555 | 81 | 0 | 0.0 | 0.0 | 0.00 | 0.00 | 0.00 | 87 | 1013.5 |
| 20260904052055 | 81 | 0 | 0.0 | 0.0 | 0.00 | 0.00 | 0.00 | 87 | 1013.4 |
| 20260904051600 | 81 | 0 | 0.0 | 6.0 | 0.00 | 0.00 | 0.00 | 87 | 1013.4 |
| 20260904051054 | 81 | 0 | 0.0 | 6.0 | 0.00 | 0.00 | 0.00 | 87 | 1013.4 |
| 20260904050556 | 81 | 0 | 1.0 | 6.0 | 0.00 | 0.00 | 0.00 | 87 | 1013.4 |
| 20260904050104 | 81 | 148 | 0.0 | 5.0 | 0.00 | 0.00 | 0.00 | 87 | 1013.4 |
| 20260904045551 | 81 | 148 | 1.0 | 5.0 | 0.00 | 0.01 | 0.00 | 87 | 1013.4 |
| 20260904045051 | 81 | 0 | 0.0 | 0.0 | 0.00 | 0.01 | 0.00 | 87 | 1013.5 |
| 20260904044614 | 81 | 0 | 0.0 | 2.0 | 0.00 | 0.01 | 0.00 | 87 | 1013.5 |
| 20260904044051 | 81 | 0 | 0.0 | 2.0 | 0.00 | 0.01 | 0.00 | 87 | 1013.4 |
| 20260904043554 | 81 | 0 | 0.0 | 3.0 | 0.00 | 0.01 | 0.00 | 87 | 1013.5 |
| 20260904043104 | 81 | 0 | 0.0 | 3.0 | 0.00 | 0.01 | 0.00 | 87 | 1013.5 |
| 20260904042553 | 81 | 150 | 0.0 | 3.0 | 0.00 | 0.01 | 0.00 | 87 | 1013.5 |
| 20260904042052 | 81 | 0 | 0.0 | 3.0 | 0.00 | 0.01 | 0.00 | 87 | 1013.5 |
| 20260904041603 | 81 | 0 | 0.0 | 0.0 | 0.00 | 0.01 | 0.00 | 87 | 1013.5 |
| 20260904041053 | 81 | 0 | 0.0 | 2.0 | 0.00 | 0.01 | 0.00 | 86 | 1013.5 |
| 20260904040554 | 81 | 0 | 0.0 | 4.0 | 0.00 | 0.01 | 0.00 | 86 | 1013.5 |
| 20260904040059 | 81 | 145 | 0.0 | 4.0 | 0.00 | 0.01 | 0.00 | 86 | 1013.6 |
| 20260904035554 | 81 | 141 | 0.0 | 6.0 | 0.00 | 0.02 | 0.00 | 86 | 1013.6 |
| 20260904035054 | 81 | 0 | 0.0 | 6.0 | 0.00 | 0.02 | 0.00 | 86 | 1013.6 |
| 20260904034602 | 81 | 148 | 0.0 | 6.0 | 0.00 | 0.02 | 0.00 | 86 | 1013.6 |
| 20260904034055 | 81 | 147 | 2.0 | 6.0 | 0.00 | 0.02 | 0.00 | 87 | 1013.5 |
| 20260904033557 | 81 | 142 | 0.0 | 5.0 | 0.00 | 0.02 | 0.00 | 87 | 1013.4 |
| 20260904033105 | 81 | 142 | 1.0 | 5.0 | 0.00 | 0.02 | 0.00 | 87 | 1013.5 |
| 20260904032556 | 81 | 89 | 0.0 | 7.0 | 0.00 | 0.02 | 0.00 | 87 | 1013.4 |
| 20260904032059 | 81 | 142 | 2.0 | 7.0 | 0.00 | 0.02 | 0.00 | 87 | 1013.3 |
| 20260904031603 | 81 | 185 | 1.0 | 7.0 | 0.00 | 0.02 | 0.00 | 87 | 1013.4 |
| 20260904031051 | 81 | 155 | 1.0 | 6.0 | 0.00 | 0.02 | 0.00 | 87 | 1013.3 |
| 20260904030554 | 81 | 144 | 1.0 | 8.0 | 0.00 | 0.02 | 0.00 | 87 | 1013.4 |
| 20260904030103 | 81 | 162 | 1.0 | 8.0 | 0.00 | 0.02 | 0.00 | 87 | 1013.3 |
| 20260904025551 | 81 | 178 | 1.0 | 8.0 | 0.00 | 0.02 | 0.00 | 87 | 1013.3 |
| 20260904025055 | 81 | 126 | 1.0 | 8.0 | 0.00 | 0.02 | 0.00 | 87 | 1013.2 |
| 20260904024601 | 81 | 166 | 2.0 | 8.0 | 0.00 | 0.02 | 0.00 | 87 | 1013.1 |
| 20260904024054 | 81 | 0 | 1.0 | 8.0 | 0.00 | 0.02 | 0.00 | 86 | 1013.1 |
| 20260904023554 | 81 | 156 | 2.0 | 8.0 | 0.00 | 0.02 | 0.00 | 86 | 1013.2 |
| 20260904023055 | 81 | 120 | 0.0 | 6.0 | 0.00 | 0.02 | 0.00 | 86 | 1013.0 |
| 20260904022554 | 81 | 156 | 1.0 | 6.0 | 0.00 | 0.02 | 0.00 | 86 | 1013.0 |
| 20260904022055 | 81 | 172 | 0.0 | 9.0 | 0.00 | 0.02 | 0.00 | 86 | 1013.0 |
| 20260904021616 | 81 | 0 | 1.0 | 9.0 | 0.00 | 0.02 | 0.00 | 86 | 1012.9 |
| 20260904021051 | 81 | 0 | 2.0 | 9.0 | 0.00 | 0.02 | 0.00 | 86 | 1012.9 |
| 20260904020551 | 81 | 107 | 2.0 | 7.0 | 0.00 | 0.02 | 0.00 | 86 | 1012.8 |
| 20260904015554 | 81 | 106 | 1.0 | 4.0 | 0.00 | 0.02 | 0.00 | 86 | 1012.8 |
| 20260904015055 | 81 | 134 | 0.0 | 11.0 | 0.00 | 0.02 | 0.00 | 86 | 1012.8 |
| 20260904014606 | 81 | 0 | 2.0 | 11.0 | 0.00 | 0.02 | 0.00 | 86 | 1012.7 |
| 20260904014055 | 81 | 163 | 3.0 | 11.0 | 0.00 | 0.02 | 0.00 | 86 | 1012.6 |
| 20260904013554 | 81 | 142 | 2.0 | 8.0 | 0.00 | 0.02 | 0.00 | 85 | 1012.5 |
| 20260904013125 | 81 | 151 | 2.0 | 8.0 | 0.00 | 0.02 | 0.00 | 85 | 1012.5 |
| 20260904012553 | 81 | 167 | 1.0 | 8.0 | 0.00 | 0.02 | 0.00 | 85 | 1012.4 |
| 20260904012054 | 81 | 150 | 2.0 | 7.0 | 0.00 | 0.02 | 0.00 | 85 | 1012.4 |
| 20260904011645 | 81 | 131 | 2.0 | 7.0 | 0.00 | 0.02 | 0.00 | 85 | 1012.5 |
| 20260904011055 | 81 | 111 | 1.0 | 7.0 | 0.00 | 0.02 | 0.00 | 84 | 1012.4 |
| 20260904010555 | 81 | 161 | 2.0 | 7.0 | 0.00 | 0.02 | 0.00 | 84 | 1012.5 |
| 20260904010057 | 81 | 89 | 1.0 | 8.0 | 0.00 | 0.02 | 0.00 | 84 | 1012.4 |
| 20260904005554 | 81 | 131 | 2.0 | 8.0 | 0.00 | 0.02 | 0.00 | 84 | 1012.4 |
| 20260904005052 | 81 | 0 | 2.0 | 8.0 | 0.00 | 0.02 | 0.00 | 84 | 1012.4 |
| 20260904004603 | 81 | 97 | 2.0 | 8.0 | 0.00 | 0.02 | 0.00 | 83 | 1012.4 |
| 20260904004051 | 82 | 105 | 1.0 | 8.0 | 0.00 | 0.02 | 0.00 | 83 | 1012.4 |
| 20260904003554 | 82 | 105 | 3.0 | 8.0 | 0.00 | 0.02 | 0.00 | 83 | 1012.4 |
| 20260904003057 | 82 | 149 | 2.0 | 9.0 | 0.00 | 0.02 | 0.00 | 83 | 1012.5 |
| 20260904002554 | 82 | 0 | 3.0 | 10.0 | 0.00 | 0.02 | 0.00 | 83 | 1012.4 |
| 20260904002055 | 82 | 86 | 3.0 | 10.0 | 0.00 | 0.02 | 0.00 | 83 | 1012.4 |
| 20260904001603 | 82 | 96 | 3.0 | 10.0 | 0.00 | 0.02 | 0.00 | 82 | 1012.3 |
| 20260904001051 | 82 | 86 | 3.0 | 11.0 | 0.00 | 0.02 | 0.00 | 82 | 1012.2 |
| 20260904000551 | 82 | 95 | 4.0 | 13.0 | 0.00 | 0.02 | 0.00 | 82 | 1012.2 |
| 20260904000104 | 82 | 96 | 6.0 | 13.0 | 0.00 | 0.02 | 0.00 | 82 | 1012.2 |
| 20260903235552 | 82 | 95 | 4.0 | 12.0 | 0.00 | 0.02 | 0.00 | 82 | 1012.2 |
| 20260903235051 | 82 | 116 | 4.0 | 12.0 | 0.00 | 0.02 | 0.00 | 82 | 1012.3 |
| 20260903234557 | 82 | 82 | 4.0 | 12.0 | 0.00 | 0.02 | 0.00 | 81 | 1012.4 |
| 20260903234055 | 83 | 69 | 4.0 | 16.0 | 0.00 | 0.02 | 0.00 | 81 | 1012.4 |
| 20260903233554 | 83 | 142 | 5.0 | 16.0 | 0.00 | 0.02 | 0.00 | 80 | 1012.4 |
| 20260903233056 | 83 | 177 | 5.0 | 12.0 | 0.00 | 0.02 | 0.00 | 79 | 1012.4 |
| 20260903232557 | 83 | 106 | 4.0 | 11.0 | 0.00 | 0.02 | 0.00 | 79 | 1012.5 |
| 20260903232051 | 83 | 160 | 4.0 | 15.0 | 0.00 | 0.02 | 0.00 | 79 | 1012.4 |
| 20260903231604 | 84 | 112 | 4.0 | 15.0 | 0.00 | 0.02 | 0.00 | 78 | 1012.3 |
| 20260903231054 | 84 | 84 | 5.0 | 11.0 | 0.00 | 0.02 | 0.00 | 78 | 1012.2 |
| 20260903230557 | 84 | 119 | 4.0 | 11.0 | 0.00 | 0.02 | 0.00 | 78 | 1012.2 |
| 20260903230058 | 84 | 76 | 4.0 | 11.0 | 0.00 | 0.02 | 0.00 | 78 | 1012.2 |
| 20260903225555 | 84 | 114 | 5.0 | 11.0 | 0.00 | 0.02 | 0.00 | 78 | 1012.1 |
| 20260903225054 | 84 | 19 | 4.0 | 12.0 | 0.00 | 0.02 | 0.00 | 78 | 1012.1 |
| 20260903224612 | 84 | 88 | 3.0 | 13.0 | 0.00 | 0.02 | 0.00 | 78 | 1012.2 |
| 20260903224055 | 84 | 96 | 5.0 | 13.0 | 0.00 | 0.02 | 0.00 | 78 | 1012.2 |
| 20260903223552 | 83 | 76 | 6.0 | 11.0 | 0.00 | 0.02 | 0.00 | 78 | 1012.1 |
| 20260903223101 | 83 | 74 | 3.0 | 8.0 | 0.00 | 0.02 | 0.00 | 78 | 1012.2 |
| 20260903222558 | 83 | 91 | 3.0 | 7.0 | 0.00 | 0.02 | 0.00 | 78 | 1012.1 |
| 20260903222052 | 83 | 98 | 3.0 | 7.0 | 0.00 | 0.02 | 0.00 | 78 | 1012.1 |
| 20260903221559 | 83 | 107 | 2.0 | 7.0 | 0.00 | 0.02 | 0.00 | 78 | 1012.2 |
| 20260903221055 | 83 | 132 | 3.0 | 8.0 | 0.00 | 0.02 | 0.00 | 78 | 1012.2 |
| 20260903220551 | 83 | 88 | 2.0 | 8.0 | 0.00 | 0.02 | 0.00 | 78 | 1012.2 |
| 20260903220104 | 82 | 82 | 3.0 | 8.0 | 0.00 | 0.02 | 0.00 | 78 | 1012.0 |
| 20260903215552 | 82 | 128 | 1.0 | 8.0 | 0.00 | 0.02 | 0.00 | 78 | 1012.1 |
| 20260903215055 | 82 | 128 | 2.0 | 8.0 | 0.00 | 0.02 | 0.00 | 78 | 1012.0 |
| 20260903214610 | 82 | 134 | 3.0 | 10.0 | 0.00 | 0.02 | 0.00 | 78 | 1012.1 |
| 20260903214055 | 82 | 173 | 3.0 | 11.0 | 0.00 | 0.02 | 0.00 | 79 | 1012.3 |
| 20260903213553 | 82 | 126 | 3.0 | 11.0 | 0.00 | 0.02 | 0.00 | 79 | 1012.5 |
| 20260903213057 | 82 | 88 | 5.0 | 11.0 | 0.00 | 0.02 | 0.00 | 78 | 1012.7 |
| 20260903212555 | 82 | 92 | 2.0 | 10.0 | 0.00 | 0.02 | 0.00 | 78 | 1012.8 |
| 20260903212052 | 82 | 69 | 4.0 | 13.0 | 0.00 | 0.02 | 0.00 | 78 | 1013.0 |
| 20260903211604 | 82 | 111 | 5.0 | 14.0 | 0.00 | 0.02 | 0.00 | 77 | 1013.2 |
| 20260903211054 | 82 | 76 | 7.0 | 14.0 | 0.00 | 0.02 | 0.00 | 77 | 1013.3 |
| 20260903210555 | 83 | 65 | 7.0 | 14.0 | 0.00 | 0.02 | 0.00 | 76 | 1013.4 |
| 20260903210140 | 83 | 82 | 8.0 | 19.0 | 0.00 | 0.02 | 0.00 | 75 | 1013.5 |
| 20260903205551 | 84 | 107 | 8.0 | 19.0 | 0.00 | 0.02 | 0.00 | 75 | 1013.3 |
| 20260903205055 | 84 | 73 | 10.0 | 19.0 | 0.00 | 0.02 | 0.00 | 74 | 1013.2 |
| 20260903204606 | 85 | 101 | 8.0 | 25.0 | 0.00 | 0.02 | 0.00 | 73 | 1013.2 |
| 20260903204054 | 86 | 72 | 9.0 | 25.0 | 0.00 | 0.02 | 0.00 | 71 | 1013.3 |
| 20260903203555 | 87 | 67 | 9.0 | 24.0 | 0.00 | 0.02 | 0.00 | 69 | 1013.1 |
| 20260903203057 | 89 | 44 | 8.0 | 18.0 | 0.00 | 0.02 | 0.00 | 66 | 1013.0 |
| 20260903202554 | 91 | 126 | 10.0 | 18.0 | 0.00 | 0.02 | 0.00 | 62 | 1012.8 |
| 20260903202054 | 94 | 79 | 7.0 | 16.0 | 0.00 | 0.02 | 0.00 | 57 | 1012.5 |
| 20260903201558 | 96 | 109 | 8.0 | 14.0 | 0.00 | 0.02 | 0.00 | 54 | 1012.4 |
| 20260903201053 | 98 | 19 | 3.0 | 9.0 | 0.00 | 0.02 | 0.00 | 50 | 1012.2 |
| 20260903200553 | 98 | 159 | 1.0 | 9.0 | 0.00 | 0.02 | 0.00 | 49 | 1012.2 |
| 20260903200117 | 98 | 202 | 6.0 | 9.0 | 0.00 | 0.02 | 0.00 | 49 | 1012.1 |
| 20260903195554 | 98 | 167 | 2.0 | 5.0 | 0.00 | 0.02 | 0.00 | 49 | 1012.4 |
| 20260903195053 | 98 | 0 | 2.0 | 5.0 | 0.00 | 0.02 | 0.00 | 49 | 1012.4 |
| 20260903194559 | 98 | 100 | 2.0 | 5.0 | 0.00 | 0.02 | 0.00 | 50 | 1012.4 |
| 20260903194053 | 98 | 223 | 1.0 | 4.0 | 0.00 | 0.02 | 0.00 | 51 | 1012.4 |
| 20260903193553 | 97 | 222 | 1.0 | 4.0 | 0.00 | 0.02 | 0.00 | 51 | 1012.4 |
| 20260903193058 | 97 | 244 | 2.0 | 6.0 | 0.00 | 0.02 | 0.00 | 51 | 1012.4 |
| 20260903192554 | 97 | 259 | 2.0 | 7.0 | 0.00 | 0.02 | 0.00 | 52 | 1012.5 |
| 20260903192053 | 97 | 232 | 1.0 | 7.0 | 0.00 | 0.02 | 0.00 | 52 | 1012.6 |
| 20260903191607 | 97 | 202 | 4.0 | 11.0 | 0.00 | 0.02 | 0.00 | 51 | 1012.7 |
| 20260903191053 | 98 | 0 | 6.0 | 11.0 | 0.00 | 0.02 | 0.00 | 52 | 1012.5 |
| 20260903190552 | 98 | 221 | 3.0 | 10.0 | 0.00 | 0.02 | 0.00 | 51 | 1012.5 |
| 20260903190104 | 98 | 253 | 1.0 | 4.0 | 0.00 | 0.02 | 0.00 | 52 | 1012.5 |
| 20260903185554 | 98 | 42 | 2.0 | 6.0 | 0.00 | 0.02 | 0.00 | 52 | 1012.7 |
| 20260903185055 | 97 | 0 | 0.0 | 6.0 | 0.00 | 0.02 | 0.00 | 52 | 1012.7 |
| 20260903184603 | 98 | 144 | 1.0 | 6.0 | 0.00 | 0.02 | 0.00 | 52 | 1012.9 |
| 20260903184055 | 98 | 67 | 2.0 | 9.0 | 0.00 | 0.02 | 0.00 | 51 | 1012.9 |
| 20260903183553 | 99 | 177 | 3.0 | 9.0 | 0.00 | 0.02 | 0.00 | 51 | 1013.0 |
| 20260903183101 | 98 | 198 | 2.0 | 10.0 | 0.00 | 0.02 | 0.00 | 52 | 1013.1 |
| 20260903182556 | 98 | 108 | 3.0 | 10.0 | 0.00 | 0.02 | 0.00 | 50 | 1013.1 |
| 20260903182054 | 98 | 191 | 3.0 | 10.0 | 0.00 | 0.02 | 0.00 | 51 | 1013.2 |
| 20260903181601 | 98 | 257 | 6.0 | 11.0 | 0.00 | 0.02 | 0.00 | 52 | 1013.2 |
| 20260903181053 | 97 | 271 | 5.0 | 11.0 | 0.00 | 0.02 | 0.00 | 54 | 1013.4 |
| 20260903180556 | 97 | 144 | 2.0 | 11.0 | 0.00 | 0.02 | 0.00 | 53 | 1013.4 |
| 20260903180108 | 97 | 199 | 5.0 | 11.0 | 0.00 | 0.02 | 0.00 | 54 | 1013.5 |
| 20260903175554 | 97 | 209 | 2.0 | 14.0 | 0.00 | 0.02 | 0.00 | 54 | 1013.5 |
| 20260903175053 | 97 | 229 | 5.0 | 14.0 | 0.00 | 0.02 | 0.00 | 54 | 1013.6 |
| 20260903174558 | 97 | 204 | 7.0 | 13.0 | 0.00 | 0.02 | 0.00 | 54 | 1013.7 |
| 20260903174055 | 96 | 232 | 6.0 | 13.0 | 0.00 | 0.02 | 0.00 | 57 | 1013.8 |
| 20260903173552 | 96 | 157 | 3.0 | 15.0 | 0.00 | 0.02 | 0.00 | 59 | 1013.9 |
| 20260903173111 | 95 | 161 | 5.0 | 15.0 | 0.00 | 0.02 | 0.00 | 60 | 1014.0 |
| 20260903172553 | 94 | 204 | 8.0 | 14.0 | 0.00 | 0.02 | 0.00 | 61 | 1014.1 |
| 20260903172054 | 94 | 148 | 2.0 | 14.0 | 0.00 | 0.02 | 0.00 | 62 | 1014.1 |
| 20260903171614 | 94 | 185 | 7.0 | 14.0 | 0.00 | 0.02 | 0.00 | 61 | 1014.1 |
| 20260903171053 | 94 | 195 | 8.0 | 13.0 | 0.00 | 0.02 | 0.00 | 61 | 1014.2 |
| 20260903170553 | 94 | 178 | 4.0 | 11.0 | 0.00 | 0.02 | 0.00 | 61 | 1014.3 |
| 20260903170108 | 94 | 194 | 5.0 | 13.0 | 0.00 | 0.02 | 0.00 | 61 | 1014.3 |
| 20260903165552 | 93 | 218 | 8.0 | 13.0 | 0.00 | 0.02 | 0.00 | 62 | 1014.2 |
| 20260903165056 | 93 | 216 | 6.0 | 12.0 | 0.00 | 0.02 | 0.00 | 62 | 1014.3 |
| 20260903164604 | 93 | 192 | 6.0 | 14.0 | 0.00 | 0.02 | 0.00 | 63 | 1014.3 |
| 20260903164053 | 93 | 157 | 7.0 | 14.0 | 0.00 | 0.02 | 0.00 | 64 | 1014.3 |
| 20260903163555 | 93 | 204 | 7.0 | 12.0 | 0.00 | 0.02 | 0.00 | 65 | 1014.3 |
| 20260903163102 | 93 | 219 | 5.0 | 13.0 | 0.00 | 0.02 | 0.00 | 66 | 1014.3 |
| 20260903162553 | 93 | 211 | 8.0 | 15.0 | 0.00 | 0.02 | 0.00 | 66 | 1014.3 |
| 20260903162053 | 92 | 207 | 7.0 | 15.0 | 0.00 | 0.02 | 0.00 | 65 | 1014.2 |
| 20260903161600 | 92 | 213 | 8.0 | 15.0 | 0.00 | 0.02 | 0.00 | 67 | 1014.2 |
| 20260903161053 | 92 | 211 | 9.0 | 15.0 | 0.00 | 0.02 | 0.00 | 68 | 1014.3 |
| 20260903160553 | 91 | 223 | 6.0 | 15.0 | 0.00 | 0.02 | 0.00 | 70 | 1014.2 |
| 20260903160106 | 91 | 205 | 8.0 | 15.0 | 0.00 | 0.02 | 0.00 | 70 | 1014.3 |
| 20260903155553 | 90 | 225 | 8.0 | 17.0 | 0.00 | 0.02 | 0.00 | 71 | 1014.2 |
| 20260903155053 | 89 | 224 | 10.0 | 17.0 | 0.00 | 0.02 | 0.00 | 72 | 1014.4 |
| 20260903154609 | 89 | 220 | 9.0 | 16.0 | 0.00 | 0.02 | 0.00 | 73 | 1014.4 |
| 20260903154053 | 89 | 238 | 9.0 | 15.0 | 0.00 | 0.02 | 0.00 | 74 | 1014.4 |
| 20260903153553 | 89 | 256 | 8.0 | 15.0 | 0.00 | 0.02 | 0.00 | 75 | 1014.4 |
| 20260903153110 | 88 | 223 | 7.0 | 14.0 | 0.00 | 0.02 | 0.00 | 77 | 1014.5 |
| 20260903152554 | 87 | 244 | 6.0 | 14.0 | 0.00 | 0.02 | 0.00 | 77 | 1014.4 |
| 20260903152052 | 87 | 217 | 9.0 | 16.0 | 0.00 | 0.02 | 0.00 | 78 | 1014.4 |
| 20260903151611 | 87 | 220 | 10.0 | 16.0 | 0.00 | 0.02 | 0.00 | 79 | 1014.5 |
| 20260903151053 | 86 | 208 | 10.0 | 19.0 | 0.00 | 0.02 | 0.00 | 80 | 1014.6 |
| 20260903150554 | 86 | 222 | 10.0 | 19.0 | 0.00 | 0.02 | 0.00 | 81 | 1014.6 |
| 20260903150110 | 86 | 217 | 11.0 | 18.0 | 0.00 | 0.02 | 0.00 | 81 | 1014.7 |
| 20260903145554 | 85 | 214 | 10.0 | 16.0 | 0.00 | 0.02 | 0.00 | 82 | 1014.7 |
| 20260903145053 | 85 | 215 | 9.0 | 15.0 | 0.00 | 0.02 | 0.00 | 83 | 1014.7 |
| 20260903144601 | 85 | 200 | 7.0 | 19.0 | 0.00 | 0.02 | 0.00 | 84 | 1014.9 |
| 20260903144055 | 85 | 244 | 9.0 | 19.0 | 0.00 | 0.02 | 0.00 | 84 | 1014.7 |
| 20260903143552 | 84 | 218 | 11.0 | 18.0 | 0.00 | 0.02 | 0.00 | 84 | 1014.7 |
| 20260903143107 | 84 | 217 | 8.0 | 15.0 | 0.00 | 0.02 | 0.00 | 85 | 1014.7 |
| 20260903142553 | 84 | 206 | 9.0 | 17.0 | 0.00 | 0.02 | 0.00 | 86 | 1014.7 |
| 20260903142053 | 84 | 218 | 10.0 | 17.0 | 0.00 | 0.02 | 0.00 | 86 | 1015.0 |
| 20260903141557 | 84 | 198 | 6.0 | 14.0 | 0.00 | 0.02 | 0.00 | 87 | 1014.8 |
| 20260903141054 | 83 | 214 | 9.0 | 14.0 | 0.00 | 0.02 | 0.00 | 87 | 1014.9 |
| 20260903140552 | 83 | 234 | 7.0 | 11.0 | 0.00 | 0.02 | 0.00 | 88 | 1014.8 |
| 20260903140109 | 83 | 206 | 5.0 | 10.0 | 0.00 | 0.02 | 0.00 | 89 | 1014.7 |
| 20260903135553 | 83 | 195 | 5.0 | 11.0 | 0.00 | 0.02 | 0.00 | 89 | 1014.8 |
| 20260903135053 | 83 | 213 | 8.0 | 11.0 | 0.00 | 0.02 | 0.00 | 89 | 1014.7 |
| 20260903134601 | 83 | 211 | 6.0 | 11.0 | 0.00 | 0.02 | 0.00 | 90 | 1014.8 |
| 20260903134053 | 83 | 211 | 7.0 | 10.0 | 0.00 | 0.02 | 0.00 | 90 | 1014.6 |
| 20260903133553 | 82 | 200 | 4.0 | 9.0 | 0.00 | 0.02 | 0.00 | 90 | 1014.6 |
| 20260903133103 | 82 | 221 | 5.0 | 8.0 | 0.00 | 0.02 | 0.00 | 90 | 1014.7 |
| 20260903132552 | 82 | 169 | 4.0 | 9.0 | 0.00 | 0.02 | 0.00 | 90 | 1014.6 |
| 20260903132052 | 82 | 181 | 4.0 | 9.0 | 0.00 | 0.02 | 0.00 | 90 | 1014.6 |
| 20260903131607 | 82 | 198 | 5.0 | 9.0 | 0.00 | 0.02 | 0.00 | 91 | 1014.7 |
| 20260903131054 | 82 | 184 | 3.0 | 8.0 | 0.00 | 0.02 | 0.00 | 91 | 1014.5 |
| 20260903130553 | 82 | 202 | 4.0 | 8.0 | 0.00 | 0.02 | 0.00 | 91 | 1014.6 |
| 20260903125553 | 82 | 190 | 3.0 | 9.0 | 0.00 | 0.02 | 0.00 | 91 | 1014.5 |
| 20260903125057 | 82 | 191 | 3.0 | 9.0 | 0.00 | 0.02 | 0.00 | 91 | 1014.5 |
| 20260903124613 | 81 | 191 | 2.0 | 5.0 | 0.00 | 0.02 | 0.00 | 91 | 1014.5 |
| 20260903124053 | 81 | 190 | 2.0 | 5.0 | 0.00 | 0.02 | 0.00 | 91 | 1014.5 |
| 20260903123556 | 81 | 184 | 2.0 | 5.0 | 0.00 | 0.02 | 0.00 | 91 | 1014.4 |
| 20260903123059 | 81 | 187 | 1.0 | 5.0 | 0.00 | 0.02 | 0.00 | 90 | 1014.4 |
| 20260903122553 | 81 | 186 | 2.0 | 8.0 | 0.00 | 0.02 | 0.00 | 90 | 1014.2 |
| 20260903122053 | 81 | 181 | 3.0 | 8.0 | 0.00 | 0.02 | 0.00 | 90 | 1014.0 |
| 20260903121603 | 81 | 190 | 3.0 | 8.0 | 0.00 | 0.02 | 0.00 | 90 | 1014.1 |
| 20260903121052 | 81 | 202 | 3.0 | 8.0 | 0.00 | 0.02 | 0.00 | 90 | 1014.1 |
| 20260903120552 | 81 | 195 | 3.0 | 8.0 | 0.00 | 0.02 | 0.00 | 90 | 1013.9 |
| 20260903120106 | 81 | 196 | 3.0 | 6.0 | 0.00 | 0.02 | 0.00 | 90 | 1013.9 |
| 20260903115553 | 82 | 196 | 2.0 | 5.0 | 0.00 | 0.02 | 0.00 | 90 | 1013.8 |
| 20260903115052 | 82 | 0 | 2.0 | 6.0 | 0.00 | 0.02 | 0.00 | 90 | 1013.8 |
| 20260903114603 | 82 | 195 | 4.0 | 7.0 | 0.00 | 0.02 | 0.00 | 90 | 1013.8 |
| 20260903114052 | 82 | 179 | 3.0 | 7.0 | 0.00 | 0.02 | 0.00 | 90 | 1013.7 |
| 20260903113557 | 82 | 198 | 4.0 | 7.0 | 0.00 | 0.02 | 0.00 | 90 | 1013.8 |
| 20260903113059 | 82 | 209 | 4.0 | 7.0 | 0.00 | 0.02 | 0.00 | 90 | 1013.9 |
| 20260903112553 | 81 | 201 | 3.0 | 6.0 | 0.00 | 0.02 | 0.00 | 90 | 1013.9 |
| 20260903112052 | 82 | 180 | 3.0 | 6.0 | 0.00 | 0.02 | 0.00 | 90 | 1013.9 |
| 20260903111602 | 82 | 184 | 2.0 | 5.0 | 0.00 | 0.02 | 0.00 | 90 | 1013.9 |
| 20260903111052 | 81 | 195 | 2.0 | 5.0 | 0.00 | 0.02 | 0.00 | 90 | 1013.9 |
| 20260903110553 | 82 | 196 | 2.0 | 5.0 | 0.00 | 0.02 | 0.00 | 90 | 1013.9 |
| 20260903110107 | 82 | 192 | 2.0 | 5.0 | 0.00 | 0.02 | 0.00 | 90 | 1013.8 |
| 20260903105555 | 81 | 194 | 2.0 | 5.0 | 0.00 | 0.02 | 0.00 | 90 | 1013.8 |
| 20260903105057 | 81 | 196 | 2.0 | 5.0 | 0.00 | 0.02 | 0.00 | 90 | 1013.8 |
| 20260903104603 | 81 | 174 | 2.0 | 6.0 | 0.00 | 0.02 | 0.00 | 90 | 1013.8 |
| 20260903104053 | 81 | 196 | 2.0 | 6.0 | 0.00 | 0.02 | 0.00 | 90 | 1013.8 |
| 20260903103553 | 81 | 176 | 3.0 | 6.0 | 0.00 | 0.02 | 0.00 | 90 | 1013.8 |
| 20260903103059 | 81 | 196 | 3.0 | 6.0 | 0.00 | 0.02 | 0.00 | 90 | 1013.8 |
| 20260903102553 | 81 | 194 | 3.0 | 6.0 | 0.00 | 0.02 | 0.00 | 89 | 1013.7 |
| 20260903102052 | 81 | 190 | 4.0 | 7.0 | 0.00 | 0.02 | 0.00 | 89 | 1013.7 |
| 20260903101605 | 81 | 187 | 4.0 | 7.0 | 0.00 | 0.02 | 0.00 | 89 | 1013.7 |
| 20260903101052 | 81 | 205 | 4.0 | 9.0 | 0.00 | 0.02 | 0.00 | 89 | 1013.6 |
| 20260903100552 | 81 | 211 | 4.0 | 9.0 | 0.00 | 0.02 | 0.00 | 89 | 1013.5 |
| 20260903100056 | 81 | 200 | 4.0 | 9.0 | 0.00 | 0.02 | 0.00 | 89 | 1013.5 |
| 20260903095555 | 81 | 202 | 4.0 | 9.0 | 0.00 | 0.02 | 0.00 | 89 | 1013.6 |
| 20260903095053 | 81 | 199 | 3.0 | 7.0 | 0.00 | 0.02 | 0.00 | 89 | 1013.7 |
| 20260903094652 | 81 | 196 | 2.0 | 5.0 | 0.00 | 0.02 | 0.00 | 89 | 1013.8 |
| 20260903094052 | 81 | 193 | 2.0 | 5.0 | 0.00 | 0.02 | 0.00 | 89 | 1013.7 |
| 20260903093553 | 81 | 196 | 3.0 | 9.0 | 0.00 | 0.02 | 0.00 | 89 | 1013.7 |
| 20260903093102 | 81 | 194 | 4.0 | 9.0 | 0.00 | 0.02 | 0.00 | 89 | 1013.7 |
| 20260903092555 | 81 | 194 | 3.0 | 8.0 | 0.00 | 0.02 | 0.00 | 89 | 1013.6 |
| 20260903092058 | 81 | 178 | 3.0 | 7.0 | 0.00 | 0.02 | 0.00 | 89 | 1013.7 |
| 20260903091606 | 81 | 182 | 3.0 | 7.0 | 0.00 | 0.02 | 0.00 | 89 | 1013.7 |
| 20260903091053 | 81 | 194 | 3.0 | 6.0 | 0.00 | 0.02 | 0.00 | 89 | 1013.6 |
| 20260903090553 | 81 | 188 | 3.0 | 5.0 | 0.00 | 0.02 | 0.00 | 89 | 1013.7 |
| 20260903085552 | 81 | 185 | 2.0 | 7.0 | 0.00 | 0.02 | 0.00 | 89 | 1013.6 |
| 20260903085053 | 81 | 187 | 4.0 | 7.0 | 0.00 | 0.02 | 0.00 | 89 | 1013.8 |
| 20260903084600 | 81 | 188 | 2.0 | 8.0 | 0.00 | 0.02 | 0.00 | 89 | 1013.7 |
| 20260903084053 | 81 | 187 | 3.0 | 8.0 | 0.00 | 0.02 | 0.00 | 88 | 1013.7 |
| 20260903083553 | 81 | 198 | 3.0 | 9.0 | 0.00 | 0.02 | 0.00 | 88 | 1013.8 |
| 20260903083108 | 81 | 165 | 4.0 | 9.0 | 0.00 | 0.02 | 0.00 | 88 | 1013.7 |
| 20260903082552 | 81 | 174 | 3.0 | 7.0 | 0.00 | 0.02 | 0.00 | 88 | 1013.7 |
| 20260903082053 | 81 | 208 | 2.0 | 6.0 | 0.00 | 0.02 | 0.00 | 88 | 1013.6 |
| 20260903081603 | 81 | 184 | 2.0 | 8.0 | 0.00 | 0.02 | 0.00 | 88 | 1013.6 |
| 20260903081052 | 81 | 169 | 3.0 | 9.0 | 0.00 | 0.02 | 0.00 | 88 | 1013.6 |
| 20260903080552 | 81 | 202 | 4.0 | 10.0 | 0.00 | 0.02 | 0.00 | 88 | 1013.5 |
| 20260903080105 | 81 | 200 | 3.0 | 10.0 | 0.00 | 0.02 | 0.00 | 88 | 1013.5 |
| 20260903075553 | 82 | 188 | 3.0 | 9.0 | 0.00 | 0.02 | 0.00 | 88 | 1013.5 |
| 20260903075052 | 82 | 164 | 4.0 | 9.0 | 0.00 | 0.02 | 0.00 | 88 | 1013.5 |
| 20260903074609 | 82 | 161 | 3.0 | 7.0 | 0.00 | 0.02 | 0.00 | 88 | 1013.5 |
| 20260903074056 | 82 | 190 | 4.0 | 9.0 | 0.00 | 0.02 | 0.00 | 88 | 1013.5 |
| 20260903073552 | 82 | 192 | 3.0 | 9.0 | 0.00 | 0.02 | 0.00 | 88 | 1013.6 |
| 20260903073102 | 82 | 190 | 3.0 | 8.0 | 0.00 | 0.02 | 0.00 | 88 | 1013.6 |
| 20260903072552 | 82 | 178 | 3.0 | 12.0 | 0.00 | 0.02 | 0.00 | 88 | 1013.5 |
| 20260903072056 | 82 | 161 | 4.0 | 12.0 | 0.00 | 0.02 | 0.00 | 88 | 1013.6 |
| 20260903071602 | 82 | 182 | 5.0 | 9.0 | 0.00 | 0.02 | 0.00 | 88 | 1013.6 |
| 20260903071051 | 82 | 178 | 4.0 | 10.0 | 0.00 | 0.02 | 0.00 | 88 | 1013.7 |
| 20260903070556 | 82 | 178 | 5.0 | 11.0 | 0.00 | 0.02 | 0.00 | 88 | 1013.7 |
| 20260903070104 | 82 | 184 | 4.0 | 11.0 | 0.00 | 0.02 | 0.00 | 88 | 1013.7 |
| 20260903065555 | 82 | 190 | 3.0 | 7.0 | 0.00 | 0.02 | 0.00 | 88 | 1013.7 |
| 20260903065052 | 82 | 179 | 2.0 | 10.0 | 0.00 | 0.02 | 0.00 | 88 | 1013.8 |
| 20260903064603 | 82 | 171 | 1.0 | 10.0 | 0.00 | 0.02 | 0.00 | 88 | 1013.9 |
| 20260903064052 | 82 | 150 | 2.0 | 8.0 | 0.00 | 0.02 | 0.00 | 88 | 1013.9 |
| 20260903063553 | 82 | 151 | 2.0 | 8.0 | 0.00 | 0.02 | 0.00 | 88 | 1014.0 |
| 20260903063102 | 82 | 152 | 3.0 | 9.0 | 0.00 | 0.02 | 0.00 | 88 | 1014.0 |
| 20260903062552 | 82 | 157 | 4.0 | 9.0 | 0.00 | 0.02 | 0.00 | 88 | 1014.1 |